EDT,Max TemperatureF,Mean TemperatureF,Min TemperatureF,Max Dew PointF,MeanDew PointF,Min DewpointF,Max Humidity, Mean Humidity, Min Humidity, Max Sea Level PressureIn, Mean Sea Level PressureIn, Min Sea Level PressureIn, Max VisibilityMiles, Mean VisibilityMiles, Min VisibilityMiles, Max Wind SpeedMPH, Mean Wind SpeedMPH, Max Gust SpeedMPH,PrecipitationIn, CloudCover, Events, WindDirDegrees
2012-3-1,76,69,62,64,63,59,93,82,69,29.97,29.91,29.86,10,10,5,18,10,25,0.34,5,Rain,222
2012-3-2,81,73,64,64,62,58,100,78,45,29.98,29.90,29.77,10,8,5,24,9,31,0.00,4,,220
2012-3-3,71,63,55,64,58,52,93,90,68,29.78,29.75,29.70,10,6,1,21,8,32,1.68,8,Rain,232
2012-3-4,58,49,40,52,36,15,93,66,21,30.13,29.84,29.68,10,8,4,35,11,49,0.60,4,Rain,303
2012-3-5,65,52,38,30,23,10,64,37,13,30.50,30.22,30.07,10,10,10,29,11,39,0.00,0,,279
2012-3-6,61,48,34,39,25,18,71,44,19,30.64,30.58,30.50,10,10,10,15,6,22,0.00,0,,82
2012-3-7,72,58,44,50,45,38,83,65,41,30.61,30.53,30.43,10,10,10,15,5,21,0.00,5,,99
2012-3-8,77,64,50,56,52,47,96,68,36,30.43,30.31,30.16,10,9,2,15,5,21,0.00,5,,162
2012-3-9,70,61,51,60,55,39,93,75,59,30.28,30.18,30.13,10,10,8,12,5,18,T,6,Rain,322
2012-3-10,65,54,43,39,32,26,76,48,26,30.48,30.40,30.29,10,10,10,17,6,23,0.00,0,,56
2012-3-11,70,56,42,50,42,37,89,67,37,30.55,30.47,30.41,10,10,10,13,5,16,0.00,1,,78
2012-3-12,74,60,46,53,50,45,93,69,47,30.44,30.35,30.28,10,10,8,15,4,20,T,5,Rain,156
2012-3-13,76,67,57,63,58,52,93,80,58,30.30,30.25,30.19,10,9,7,17,4,22,0.03,5,Rain,232
2012-3-14,85,71,56,62,56,46,100,76,28,30.26,30.22,30.16,10,5,0,10,3,17,0.00,2,Fog,259
2012-3-15,86,75,64,60,54,47,100,82,27,30.29,30.24,30.17,10,4,0,12,3,17,0.00,1,Fog,170
2012-3-16,86,73,59,61,58,55,97,79,37,30.24,30.20,30.12,10,9,1,14,5,20,0.03,2,Rain,215
2012-3-17,85,70,55,60,57,53,93,70,37,30.24,30.20,30.12,10,10,5,23,3,30,0.01,2,Rain,272
2012-3-18,81,68,55,60,57,54,100,81,45,30.30,30.23,30.19,10,6,0,13,2,17,0.00,1,Fog,359
2012-3-19,85,70,54,60,56,54,100,81,37,30.23,30.18,30.10,10,5,0,10,1,14,0.01,1,Fog,149
2012-3-20,84,70,55,62,56,53,100,79,34,30.23,30.18,30.12,10,7,0,14,3,17,0.00,1,Fog,128
2012-3-21,82,70,58,65,60,57,100,85,49,30.29,30.23,30.17,10,5,0,15,4,29,0.01,5,Fog-Rain,99
2012-3-22,83,71,59,64,61,57,100,88,45,30.27,30.22,30.15,10,5,0,13,3,17,T,4,Fog-Rain,99
2012-3-23,85,73,60,64,61,58,100,85,43,30.18,30.11,29.98,10,5,0,16,3,18,0.28,4,Fog-Rain,200
2012-3-24,78,71,63,65,62,56,100,83,54,30.02,29.91,29.75,10,9,4,16,7,22,0.05,5,Rain,206
2012-3-25,70,61,52,57,50,46,93,71,47,29.84,29.78,29.73,10,10,9,18,6,31,0.03,3,Rain,302
2012-3-26,83,69,55,53,48,39,83,58,22,30.03,29.93,29.84,10,10,10,16,5,21,0.00,1,,330
2012-3-27,71,61,50,46,38,31,66,44,27,30.32,30.22,30.05,10,10,10,16,6,24,0.00,0,,81
2012-3-28,82,66,49,60,51,43,89,66,34,30.27,30.14,29.99,10,10,10,18,7,31,0.00,3,,223
2012-3-29,87,72,57,56,54,53,80,57,31,30.00,29.94,29.87,10,10,9,14,6,20,0.00,0,,245
2012-3-30,86,71,55,58,54,49,93,58,29,30.01,29.94,29.88,10,9,5,18,6,24,T,1,,223
2012-3-31,77,71,64,65,62,55,93,78,60,29.93,29.85,29.77,10,10,8,16,7,21,0.14,5,Rain,244